• In Hungary
  • List of Countries
  • For 7 days
  • Water Temperature
  • Satellite Maps
  • Weather Map
  • News
  • Weather Widgets
  • user-avatar
    Login

    Hourly Weather Ptaszkowa

    Today, 11 December, Monday

    Time Temperature Precipitation Wind Pressure Humidity
    00:00 -4°C° 0 mm 8 mps 709 mmHg 71%
    01:00 -1°C° 0 mm 3 mps 709 mmHg 78%
    02:00 -2°C° 0 mm 4 mps 709 mmHg 78%
    03:00 -3°C° 0 mm 6 mps 709 mmHg 79%
    04:00 -3°C° 0 mm 7 mps 709 mmHg 79%
    05:00 -2°C° 0.1 mm 7 mps 709 mmHg 79%
    06:00 -2°C° 0.1 mm 7 mps 709 mmHg 79%
    07:00 -1°C° 0 mm 5 mps 709 mmHg 81%
    08:00 -1°C° 0 mm 6 mps 709 mmHg 81%
    09:00 +1°C° 0 mm 6 mps 709 mmHg 80%
    10:00 +1°C° 0 mm 6 mps 710 mmHg 80%
    11:00 +2°C° 0 mm 7 mps 710 mmHg 79%
    12:00 +3°C° 0 mm 7 mps 709 mmHg 79%
    13:00 +3°C° 0 mm 5 mps 709 mmHg 77%
    14:00 +3°C° 0 mm 6 mps 709 mmHg 78%
    15:00 +3°C° 0 mm 6 mps 709 mmHg 78%
    16:00 +3°C° 0 mm 7 mps 709 mmHg 79%
    17:00 +3°C° 0 mm 7 mps 709 mmHg 79%
    18:00 +4°C° 0 mm 7 mps 709 mmHg 79%
    19:00 +4°C° 0 mm 7 mps 709 mmHg 79%
    20:00 +4°C° 0 mm 7 mps 709 mmHg 79%
    21:00 +4°C° 0 mm 8 mps 709 mmHg 80%
    22:00 +4°C° 0 mm 8 mps 709 mmHg 81%
    23:00 +5°C° 0 mm 8 mps 709 mmHg 80%

    Tomorrow, 12 December, Tuesday

    Time Temperature Precipitation Wind Pressure Humidity
    00:00 +5°C° 0 mm 8 mps 709 mmHg 79%
    01:00 +6°C° 0 mm 9 mps 709 mmHg 78%
    02:00 +6°C° 0 mm 9 mps 709 mmHg 78%
    03:00 +6°C° 0 mm 9 mps 709 mmHg 77%
    04:00 +6°C° 0 mm 9 mps 709 mmHg 77%
    05:00 +6°C° 0 mm 8 mps 710 mmHg 77%
    06:00 +6°C° 0 mm 8 mps 710 mmHg 78%
    07:00 +6°C° 0 mm 7 mps 710 mmHg 79%
    08:00 +6°C° 0 mm 7 mps 711 mmHg 79%
    09:00 +7°C° 0 mm 6 mps 712 mmHg 79%
    10:00 +7°C° 0 mm 6 mps 713 mmHg 79%
    11:00 +7°C° 0 mm 5 mps 713 mmHg 80%
    12:00 +8°C° 0 mm 5 mps 714 mmHg 81%
    13:00 +8°C° 0 mm 4 mps 715 mmHg 81%
    14:00 +7°C° 0 mm 4 mps 715 mmHg 83%
    15:00 +7°C° 0 mm 3 mps 716 mmHg 84%
    16:00 +5°C° 0 mm 3 mps 716 mmHg 86%
    17:00 +5°C° 0.1 mm 3 mps 717 mmHg 86%
    18:00 +5°C° 0.1 mm 2 mps 718 mmHg 87%
    19:00 +5°C° 0.1 mm 2 mps 718 mmHg 87%
    20:00 +4°C° 0.5 mm 3 mps 719 mmHg 84%
    21:00 +3°C° 0.5 mm 3 mps 719 mmHg 80%
    22:00 +3°C° 0.5 mm 4 mps 720 mmHg 77%
    23:00 +2°C° 0.4 mm 3 mps 720 mmHg 77%

    Day after tomorrow, 13 December, Wednesday

    Time Temperature Precipitation Wind Pressure Humidity
    00:00 +2°C° 0.4 mm 3 mps 721 mmHg 77%
    01:00 +1°C° 0.4 mm 3 mps 721 mmHg 76%
    02:00 +2°C° 0.3 mm 2 mps 721 mmHg 77%
    03:00 +2°C° 0.3 mm 2 mps 721 mmHg 77%
    04:00 +1°C° 0.3 mm 2 mps 722 mmHg 78%
    05:00 +1°C° 0.1 mm 2 mps 722 mmHg 79%
    06:00 +2°C° 0.1 mm 1 mps 722 mmHg 80%
    07:00 +2°C° 0.1 mm 1 mps 723 mmHg 81%
    08:00 +2°C° 0 mm 1 mps 723 mmHg 79%
    09:00 +2°C° 0 mm 1 mps 723 mmHg 78%
    10:00 +2°C° 0 mm 1 mps 723 mmHg 76%
    11:00 +3°C° 0 mm 1 mps 723 mmHg 74%
    12:00 +3°C° 0 mm 1 mps 723 mmHg 72%
    13:00 +3°C° 0 mm 1 mps 722 mmHg 70%
    14:00 +2°C° 0 mm 1 mps 722 mmHg 75%
    15:00 +1°C° 0 mm 1 mps 721 mmHg 79%
    16:00 0°C° 0 mm 1 mps 721 mmHg 84%
    17:00 0°C° 0 mm 1 mps 721 mmHg 85%
    18:00 0°C° 0 mm 1 mps 721 mmHg 87%
    19:00 -3°C° 0 mm 2 mps 720 mmHg 88%
    20:00 -3°C° 0 mm 2 mps 720 mmHg 87%
    21:00 -3°C° 0 mm 2 mps 719 mmHg 87%
    22:00 -3°C° 0 mm 2 mps 719 mmHg 86%
    23:00 -4°C° 0 mm 3 mps 718 mmHg 84%

    14 December, Thursday

    Time Temperature Precipitation Wind Pressure Humidity
    00:00 -4°C° 0 mm 3 mps 718 mmHg 82%
    01:00 -4°C° 0 mm 4 mps 717 mmHg 80%
    02:00 -3°C° 0 mm 4 mps 716 mmHg 77%
    03:00 -3°C° 0 mm 4 mps 716 mmHg 73%
    04:00 -4°C° 0 mm 5 mps 715 mmHg 69%
    05:00 -2°C° 0 mm 5 mps 715 mmHg 71%
    06:00 -2°C° 0 mm 5 mps 715 mmHg 73%
    07:00 -3°C° 0 mm 6 mps 714 mmHg 75%
    08:00 -2°C° 0 mm 6 mps 714 mmHg 74%
    09:00 -1°C° 0 mm 6 mps 714 mmHg 74%
    10:00 -1°C° 0 mm 6 mps 714 mmHg 73%
    11:00 +1°C° 0.1 mm 5 mps 714 mmHg 74%
    12:00 +1°C° 0.1 mm 5 mps 714 mmHg 75%
    13:00 +1°C° 0.1 mm 5 mps 714 mmHg 76%
    14:00 +1°C° 0 mm 5 mps 714 mmHg 79%
    15:00 0°C° 0 mm 4 mps 714 mmHg 82%
    16:00 0°C° 0 mm 4 mps 714 mmHg 85%
    17:00 0°C° 0 mm 4 mps 714 mmHg 85%
    18:00 +1°C° 0 mm 3 mps 714 mmHg 85%
    19:00 +1°C° 0 mm 3 mps 714 mmHg 84%
    20:00 +1°C° 0 mm 3 mps 713 mmHg 84%
    21:00 0°C° 0 mm 3 mps 713 mmHg 84%
    22:00 0°C° 0 mm 3 mps 712 mmHg 84%
    23:00 0°C° 0 mm 3 mps 712 mmHg 84%

    15 December, Friday

    Time Temperature Precipitation Wind Pressure Humidity
    00:00 0°C° 0 mm 3 mps 711 mmHg 84%
    01:00 +1°C° 0 mm 3 mps 710 mmHg 83%
    02:00 0°C° 0 mm 4 mps 710 mmHg 83%
    03:00 0°C° 0 mm 4 mps 709 mmHg 82%
    04:00 0°C° 0 mm 4 mps 708 mmHg 81%
    05:00 0°C° 0 mm 4 mps 708 mmHg 82%
    06:00 0°C° 0 mm 4 mps 708 mmHg 82%
    07:00 0°C° 0 mm 5 mps 708 mmHg 83%
    08:00 +1°C° 0 mm 5 mps 709 mmHg 81%
    09:00 +1°C° 0 mm 4 mps 709 mmHg 79%
    10:00 +1°C° 0 mm 4 mps 709 mmHg 77%
    11:00 +3°C° 0 mm 4 mps 710 mmHg 73%
    12:00 +3°C° 0 mm 4 mps 710 mmHg 70%
    13:00 +3°C° 0 mm 3 mps 711 mmHg 66%
    14:00 +2°C° 0 mm 3 mps 711 mmHg 71%
    15:00 +2°C° 0 mm 2 mps 711 mmHg 75%
    16:00 +2°C° 0 mm 1 mps 711 mmHg 80%
    17:00 +2°C° 0 mm 1 mps 711 mmHg 82%
    18:00 +2°C° 0 mm 1 mps 711 mmHg 83%
    19:00 0°C° 0 mm 0 mps 711 mmHg 85%
    20:00 +1°C° 0.1 mm 1 mps 711 mmHg 85%
    21:00 +1°C° 0.1 mm 1 mps 710 mmHg 86%
    22:00 +1°C° 0.1 mm 1 mps 710 mmHg 86%
    23:00 +1°C° 0.3 mm 1 mps 710 mmHg 87%

    16 December, Saturday

    Time Temperature Precipitation Wind Pressure Humidity
    00:00 +1°C° 0.3 mm 1 mps 710 mmHg 88%
    01:00 -1°C° 0.3 mm 2 mps 709 mmHg 89%
    02:00 -1°C° 0.8 mm 2 mps 709 mmHg 89%
    03:00 -1°C° 0.8 mm 2 mps 709 mmHg 90%
    04:00 -1°C° 0.8 mm 2 mps 709 mmHg 90%
    05:00 -1°C° 0.5 mm 2 mps 709 mmHg 90%
    06:00 -1°C° 0.5 mm 2 mps 710 mmHg 91%
    07:00 -1°C° 0.5 mm 2 mps 710 mmHg 91%
    08:00 -1°C° 0.1 mm 2 mps 710 mmHg 90%
    09:00 -1°C° 0.1 mm 2 mps 711 mmHg 89%
    10:00 +1°C° 0.1 mm 1 mps 711 mmHg 88%
    11:00 +1°C° 0 mm 1 mps 711 mmHg 86%
    12:00 +2°C° 0 mm 1 mps 712 mmHg 85%
    13:00 +2°C° 0 mm 1 mps 712 mmHg 83%
    14:00 +1°C° 0 mm 1 mps 712 mmHg 86%
    15:00 +1°C° 0 mm 1 mps 712 mmHg 88%
    16:00 0°C° 0 mm 1 mps 713 mmHg 90%
    17:00 0°C° 0 mm 1 mps 713 mmHg 91%
    18:00 0°C° 0 mm 1 mps 713 mmHg 91%
    19:00 -1°C° 0 mm 1 mps 714 mmHg 91%
    20:00 -1°C° 0 mm 1 mps 714 mmHg 91%
    21:00 -1°C° 0 mm 1 mps 714 mmHg 91%
    22:00 -1°C° 0 mm 1 mps 715 mmHg 91%
    23:00 -1°C° 0 mm 1 mps 715 mmHg 91%
    Show more